sat.trackr.live / text

‹ back to catalog

KUIPER-00423

NORAD 69592 · 2026-140A

PAYLOAD ACTIVE UNKNOWN

§ Identity

Operator
Country
US
Launch date
2026-06-17
Launch site
FRGUI
Launch vehicle
Mass (kg)
RCS (m²)

External: N2YO · Heavens-Above · Gunter

§ Orbital elements

Epoch: 2026-09-20T04:00:03.000096Z

Period
97.52 min
Inclination
51.9013°
Eccentricity
0.0001509
Mean motion
14.76572004 rev/d
Perigee alt
639.1 km
Apogee alt
641.2 km
Semi-major
7,018.3 km
B*
-6.3856e-4
RAAN
305.5401°
Arg perigee
131.9738°
Mean anomaly
74.3003°
Rev number
525

§ Raw data

KUIPER-004231 69592U 26140A   26263.16670139 -.00004708  00000+0 -63856-3 0  99972 69592  51.9013 305.5401 0001509 131.9738  74.3003 14.76572004  5252

JSON: /api/v1/satellites/69592 · /tle

For live sub-satellite position, see the globe view (requires WebGL).

§ Visibility from observer

Set your observer location to see the next 7 days of passes ≥ 10°. The values pass through the URL so the page stays shareable.

No JS? Fill the form by hand. The geolocation button needs JavaScript.